Regional Weather Roundup
Issued by NWS

Home | Current Version | Previous Version | Graphics & Text | Print | Product List | Glossary On
Versions: 1 2 3 4 5 6 7 8 9 10 11 12 13 14 15 16 17 18 19 20 21 22 23 24 25 26 27 28 29 30 31 32 33 34 35 36 37 38 39 40 41 42 43 44 45 46 47 48 49 50
000
ASUS43 KOAX 232210
RWRNE

WEATHER ROUNDUP FOR NEBRASKA
NATIONAL WEATHER SERVICE OMAHA NE
400 PM CST FRI FEB 23 2018

NOTES: SATELLITE DATA IS BEING USED TO AUGMENT CLOUD COVER ABOVE
       12000 FEET.
       "FAIR" INDICATES FEW OR NO CLOUDS BELOW 12,000 FEET WITH NO
       SIGNIFICANT WEATHER AND/OR OBSTRUCTIONS TO VISIBILITY.


NEZ001>004-019>022-054>056-232300-
NEBRASKA PANHANDLE

CITY           SKY/WX    TMP DP  RH WIND       PRES   REMARKS
SCOTTSBLUFF    MOSUNNY   25  14  63 E13       30.05F WCI  14
ALLIANCE       MOSUNNY   22  14  71 SE7       30.07F WCI  13
CHADRON        SUNNY     19   6  57 NE5       30.11F WCI  12
GORDON         CLOUDY    21   9  59 S5        30.11S WCI  14
KIMBALL        SUNNY     30  18  61 E12       29.98F WCI  20
SIDNEY         SUNNY     31  17  56 E13       30.03F WCI  21
$$

NEZ057>060-069>072-079>082-232300-
SOUTHWEST NEBRASKA

CITY           SKY/WX    TMP DP  RH WIND       PRES   REMARKS
NORTH PLATTE   SUNNY     27  18  69 E12       30.16F WCI  17
IMPERIAL       SUNNY     30  21  69 NE13      30.09F WCI  20
LEXINGTON      CLOUDY    28  22  81 NE6       30.19F WCI  21
MCCOOK         SUNNY     37  25  61 E10       30.12F WCI  30
OGALLALA       SUNNY     29  19  66 E10       30.11S WCI  20
$$

NEZ005>010-023>029-035>040-094-232300-
NORTH CENTRAL NEBRASKA

CITY           SKY/WX    TMP DP  RH WIND       PRES   REMARKS
VALENTINE      MOSUNNY   23  11  60 S3        30.19S
AINSWORTH      SUNNY     22  15  73 SE3       30.20S
BROKEN BOW     SUNNY     24  16  71 NE6       30.19F WCI  17
O`NEILL        SUNNY     20  15  82 S3        30.26S
ORD            SUNNY     27  17  66 CALM      30.22F
THEDFORD       SUNNY     27  17  63 CALM      30.17F
$$

NEZ041-046>049-061>064-073>077-083>087-232300-
SOUTH CENTRAL NEBRASKA

CITY           SKY/WX    TMP DP  RH WIND       PRES   REMARKS
GRAND ISLAND   CLOUDY    25  20  81 N5        30.24F WCI  19
AURORA         CLOUDY    27  23  85 N6        30.24F WCI  20
HASTINGS       PTSUNNY   28  21  75 NE8       30.22F WCI  20
HEBRON         PTSUNNY   34  28  79 NE8       30.23F WCI  27
HOLDREGE       SUNNY     32  24  71 NE10      30.17F WCI  24
KEARNEY        CLOUDY    27  22  81 NE8       30.21F WCI  19
YORK           PTSUNNY   28  25  86 NE7       30.26F WCI  21
$$

NEZ011>018-030>034-042>045-232300-
NORTHEAST NEBRASKA

CITY           SKY/WX    TMP DP  RH WIND       PRES   REMARKS
NORFOLK        SUNNY     25  19  78 VRB7      30.26F WCI  17
ALBION         CLOUDY    27  20  76 N3        30.26S
BLAIR          CLOUDY    26  23  85 N6        30.28F WCI  20
COLUMBUS       CLOUDY    26  21  81 NW5       30.29S WCI  20
FREMONT        CLOUDY    28  22  81 N6        30.30F WCI  21
TEKAMAH        PTSUNNY   26  20  77 NW9       30.31S WCI  17
WAYNE          CLOUDY    23  21  93 NW7       30.29S WCI  15
$$

NEZ050>053-065>068-078-088>093-232300-
SOUTHEAST NEBRASKA

CITY           SKY/WX    TMP DP  RH WIND       PRES   REMARKS
LINCOLN        MOSUNNY   33  25  72 NE9       30.28F WCI  25
OMAHA EPPLEY   MOSUNNY   28  22  78 N13       30.30F WCI  17
BEATRICE       PTSUNNY   34  29  82 NE8       30.25F WCI  28
FALLS CITY     CLOUDY    37  27  67 N7        30.24F WCI  32
NEBRASKA CITY  MOSUNNY   33  29  88 N10       30.26F WCI  24
PLATTSMOUTH    MOSUNNY   30  26  83 NW7       30.26F WCI  23
$$

NEZ044-045-051>053-067-232300-
OMAHA AREA

CITY           SKY/WX    TMP DP  RH WIND       PRES   REMARKS
OMAHA EPPLEY   MOSUNNY   28  22  78 N13       30.30F WCI  17
BLAIR          CLOUDY    26  23  85 N6        30.28F WCI  20
FREMONT        CLOUDY    28  22  81 N6        30.30F WCI  21
MILLARD        SUNNY     29  22  75 N5        30.29F WCI  24
OFFUTT AFB     MOSUNNY   31  25  76 N6        30.28F WCI  26
PLATTSMOUTH    MOSUNNY   30  26  83 NW7       30.26F WCI  23
WAHOO          FAIR      28  22  79 N8        30.29F WCI  19
$$




USA.gov is the U.S. government's official web portal to all federal, state and local government web resources and services.